sat.trackr.live / text

‹ back to catalog

STARLINK-5990

NORAD 56448 · 2023-064A

PAYLOAD ACTIVE UNKNOWN

§ Identity

Operator
Country
US
Launch date
2023-05-10
Launch site
AFWTR
Launch vehicle
Mass (kg)
RCS (m²)

Purposes: comms

External: N2YO · Heavens-Above · Gunter

§ Orbital elements

Epoch: 2026-09-20T13:22:58.454400Z

Period
96.11 min
Inclination
70.0011°
Eccentricity
0.0003176
Mean motion
14.98331385 rev/d
Perigee alt
569.8 km
Apogee alt
574.3 km
Semi-major
6,950.2 km
B*
-1.3359e-5
RAAN
13.1975°
Arg perigee
268.2753°
Mean anomaly
91.8043°
Rev number
18,443

§ Raw data

STARLINK-59901 56448U 23064A   26263.55762100 -.00000252  00000+0 -13359-4 0  99922 56448  70.0011  13.1975 0003176 268.2753  91.8043 14.98331385184434

JSON: /api/v1/satellites/56448 · /tle

For live sub-satellite position, see the globe view (requires WebGL).

§ Visibility from observer

Set your observer location to see the next 7 days of passes ≥ 10°. The values pass through the URL so the page stays shareable.

No JS? Fill the form by hand. The geolocation button needs JavaScript.